Location: Bun Machan
(52.1403°N, 7.3744°W)
Time: 02:53:02
(UTC+00:00)

Cosmos 389 Rocket - Pass Details

Date: 14 July 2020
Orbit: 442 x 477 km, 81.1° (Epoch: 04 August)

Event Time Altitude Azimuth Distance (km) Brightness Sun altitude
Rises 01:26:42 0° 334° (NNW) 2,482 7.0 -15.4°
Reaches altitude 10° 01:29:11 10° 317° (NW) 1,596 5.6 -15.3°
Maximum altitude 01:31:44 19° 270° (W) 1,130 4.3 -15.2°
Enters shadow 01:32:39 17° 248° (WSW) 1,197 4.2 -15.2°
